sat.trackr.live / text

‹ back to catalog

STARLINK-11478 [DTC]

NORAD 62557 · 2025-006D

PAYLOAD ACTIVE UNKNOWN

§ Identity

Operator
Country
US
Launch date
2025-01-10
Launch site
AFETR
Launch vehicle
Mass (kg)
RCS (m²)

Purposes: comms

External: N2YO · Heavens-Above · Gunter

§ Orbital elements

Epoch: 2026-05-25T01:29:05.345088Z

Period
91.67 min
Inclination
43.0028°
Eccentricity
0.0002106
Mean motion
15.70875142 rev/d
Perigee alt
355.0 km
Apogee alt
357.8 km
Semi-major
6,734.5 km
B*
1.1344e-3
RAAN
39.5605°
Arg perigee
271.7718°
Mean anomaly
88.2908°
Rev number
7,861

§ Raw data

STARLINK-11478 [DTC]1 62557U 25006D   26145.06186742  .00147949  00000+0  11344-2 0  99982 62557  43.0028  39.5605 0002106 271.7718  88.2908 15.70875142 78611

JSON: /api/v1/satellites/62557 · /tle

For live sub-satellite position, see the globe view (requires WebGL).

§ Visibility from observer

Set your observer location to see the next 7 days of passes ≥ 10°. The values pass through the URL so the page stays shareable.

No JS? Fill the form by hand. The geolocation button needs JavaScript.